Location: Newark
(25.4800°N, 85.7200°E)
Time: 17:54:33
(UTC+00:00)

Vanguard 1 Rocket - Pass Details

Date: 21 August 2019
Orbit: 652 x 4225 km, 34.3° (Epoch: 15 September)

Event Time Altitude Azimuth Distance (km) Brightness Sun altitude
Rises 22:17:29 0° 288° (WNW) 3,031 - -21.2°
Reaches altitude 10° 22:19:40 10° 298° (WNW) 2,235 - -20.7°
Exits shadow 22:20:50 17° 306° (NW) 1,870 8.7 -20.5°
Maximum altitude 22:24:19 37° 6° (N) 1,419 8.6 -19.8°
Drops below altitude 10° 22:31:33 10° 72° (ENE) 3,501 11.7 -18.3°
Sets 22:35:54 0° 80° (E) 5,054 12.8 -17.4°
